Time,TemperatureF,DewpointF,PressureIn,WindDirection,WindDirectionDegrees,WindSpeedMPH,WindSpeedGustMPH,Humidity,HourlyPrecipIn,Conditions,Clouds,dailyrainin,SolarRadiationWatts/m^2,SoftwareType,DateUTC
2013-09-22 00:02:00,59.0,50.0,-100.00,WSW,237,3.0,9.0,71,0.00,,,0.01,0.000000,,2013-09-22 07:02:00,
2013-09-22 00:11:00,59.0,50.0,-100.00,WSW,237,3.0,9.0,71,0.00,,,0.01,0.000000,,2013-09-22 07:11:00,
2013-09-22 00:42:00,59.0,48.0,-100.00,NNE,14,4.0,8.0,68,0.00,,,0.01,0.000000,,2013-09-22 07:42:00,
2013-09-22 00:52:00,59.0,48.0,-100.00,NNE,14,4.0,8.0,68,0.00,,,0.01,0.000000,,2013-09-22 07:52:00,
2013-09-22 01:03:00,59.0,48.0,-100.00,NNE,14,4.0,8.0,68,0.00,,,0.01,0.000000,,2013-09-22 08:03:00,
2013-09-22 01:11:00,59.0,48.0,-100.00,NNE,14,4.0,8.0,68,0.00,,,0.01,0.000000,,2013-09-22 08:11:00,
2013-09-22 01:42:00,57.0,47.0,-100.00,NNW,332,3.0,7.0,69,0.00,,,0.01,0.000000,,2013-09-22 08:42:00,
2013-09-22 01:52:00,57.0,47.0,-100.00,NNW,332,3.0,7.0,69,0.00,,,0.01,0.000000,,2013-09-22 08:52:00,
2013-09-22 02:01:00,57.0,47.0,-100.00,NNW,332,3.0,7.0,69,0.00,,,0.01,0.000000,,2013-09-22 09:01:00,
2013-09-22 02:11:00,57.0,47.0,-100.00,NNW,332,3.0,7.0,69,0.00,,,0.01,0.000000,,2013-09-22 09:11:00,
2013-09-22 02:43:00,55.0,47.0,-100.00,NNW,329,4.0,7.0,75,0.00,,,0.01,0.000000,,2013-09-22 09:43:00,
2013-09-22 02:53:00,55.0,47.0,-100.00,NNW,329,4.0,7.0,75,0.00,,,0.01,0.000000,,2013-09-22 09:53:00,
2013-09-22 03:03:00,55.0,47.0,-100.00,NNW,329,4.0,7.0,75,0.00,,,0.01,0.000000,,2013-09-22 10:03:00,
2013-09-22 03:12:00,55.0,47.0,-100.00,NNW,329,4.0,7.0,75,0.00,,,0.01,0.000000,,2013-09-22 10:12:00,
2013-09-22 03:44:00,55.0,49.0,-100.00,West,261,2.0,6.0,79,0.00,,,-99.99,0.000000,,2013-09-22 10:44:00,
2013-09-22 03:53:00,55.0,49.0,-100.00,West,261,2.0,6.0,79,0.00,,,-99.99,0.000000,,2013-09-22 10:53:00,
2013-09-22 04:12:00,55.0,49.0,-100.00,West,261,2.0,6.0,79,0.00,,,-99.99,0.000000,,2013-09-22 11:12:00,
2013-09-22 04:42:00,55.0,48.0,-100.00,SW,223,2.0,6.0,77,0.00,,,0.01,0.000000,,2013-09-22 11:42:00,
2013-09-22 04:52:00,55.0,48.0,-100.00,SW,223,2.0,6.0,77,0.00,,,0.01,0.000000,,2013-09-22 11:52:00,
2013-09-22 05:02:00,55.0,48.0,-100.00,SW,223,2.0,6.0,77,0.00,,,0.01,0.000000,,2013-09-22 12:02:00,
2013-09-22 05:12:00,55.0,48.0,-100.00,SW,223,2.0,6.0,77,0.00,,,0.01,0.000000,,2013-09-22 12:12:00,
2013-09-22 05:42:00,54.0,48.0,-100.00,ESE,117,2.0,7.0,79,0.00,,,0.01,0.000000,,2013-09-22 12:42:00,
2013-09-22 05:52:00,54.0,48.0,-100.00,ESE,117,2.0,7.0,79,0.00,,,0.01,0.000000,,2013-09-22 12:52:00,
2013-09-22 06:02:00,54.0,48.0,-100.00,ESE,117,2.0,7.0,79,0.00,,,0.01,0.000000,,2013-09-22 13:02:00,
2013-09-22 06:12:00,54.0,48.0,-100.00,ESE,117,2.0,7.0,79,0.00,,,0.01,0.000000,,2013-09-22 13:12:00,
2013-09-22 06:42:00,54.0,48.0,-100.00,North,354,2.0,7.0,81,0.00,,,0.01,0.000000,,2013-09-22 13:42:00,
2013-09-22 06:52:00,54.0,48.0,-100.00,North,354,2.0,7.0,81,0.00,,,0.01,0.000000,,2013-09-22 13:52:00,
2013-09-22 07:02:00,54.0,48.0,-100.00,North,354,2.0,7.0,81,0.00,,,0.01,0.000000,,2013-09-22 14:02:00,
2013-09-22 07:11:00,54.0,48.0,-100.00,North,354,2.0,7.0,81,0.00,,,0.01,0.000000,,2013-09-22 14:11:00,
2013-09-22 07:42:00,54.0,48.0,-100.00,SE,140,3.0,9.0,79,0.00,,,0.01,3.000000,,2013-09-22 14:42:00,
2013-09-22 07:52:00,54.0,48.0,-100.00,SE,140,3.0,9.0,79,0.00,,,0.01,3.000000,,2013-09-22 14:52:00,
2013-09-22 08:02:00,54.0,48.0,-100.00,SE,140,3.0,9.0,79,0.00,,,0.01,3.000000,,2013-09-22 15:02:00,
2013-09-22 08:12:00,54.0,48.0,-100.00,SE,140,3.0,9.0,79,0.00,,,0.01,3.000000,,2013-09-22 15:12:00,
2013-09-22 08:13:00,55.0,49.0,-100.00,SW,226,2.0,7.0,81,0.00,,,0.01,36.000000,,2013-09-22 15:13:00,
2013-09-22 08:44:00,55.0,49.0,-100.00,SW,226,2.0,7.0,81,0.00,,,0.01,36.000000,,2013-09-22 15:44:00,
2013-09-22 08:55:00,55.0,49.0,-100.00,SW,226,2.0,7.0,81,0.00,,,0.01,36.000000,,2013-09-22 15:55:00,
2013-09-22 09:04:00,55.0,49.0,-100.00,SW,226,2.0,7.0,81,0.00,,,0.01,36.000000,,2013-09-22 16:04:00,
2013-09-22 09:43:00,57.0,50.0,-100.00,West,267,4.0,7.0,76,0.00,,,0.01,132.000000,,2013-09-22 16:43:00,
2013-09-22 09:54:00,57.0,50.0,-100.00,West,267,4.0,7.0,76,0.00,,,0.01,132.000000,,2013-09-22 16:54:00,
2013-09-22 10:03:00,57.0,50.0,-100.00,West,267,4.0,7.0,76,0.00,,,0.01,132.000000,,2013-09-22 17:03:00,
2013-09-22 10:12:00,57.0,50.0,-100.00,West,267,4.0,7.0,76,0.00,,,0.01,132.000000,,2013-09-22 17:12:00,
2013-09-22 10:43:00,58.0,49.0,-100.00,WSW,248,5.0,9.0,73,0.00,,,0.01,168.000000,,2013-09-22 17:43:00,
2013-09-22 10:53:00,58.0,49.0,-100.00,WSW,248,5.0,9.0,73,0.00,,,0.01,168.000000,,2013-09-22 17:53:00,
2013-09-22 11:02:00,58.0,49.0,-100.00,WSW,248,5.0,9.0,73,0.00,,,0.01,168.000000,,2013-09-22 18:02:00,
2013-09-22 11:12:00,58.0,49.0,-100.00,WSW,248,5.0,9.0,73,0.00,,,0.01,168.000000,,2013-09-22 18:12:00,
2013-09-22 11:42:00,63.0,52.0,-100.00,WSW,255,4.0,10.0,67,0.00,,,0.01,397.000000,,2013-09-22 18:42:00,
2013-09-22 11:52:00,63.0,52.0,-100.00,WSW,255,4.0,10.0,67,0.00,,,0.01,397.000000,,2013-09-22 18:52:00,
2013-09-22 12:02:00,63.0,52.0,-100.00,WSW,255,4.0,10.0,67,0.00,,,0.01,397.000000,,2013-09-22 19:02:00,
2013-09-22 12:11:00,63.0,52.0,-100.00,WSW,255,4.0,10.0,67,0.00,,,0.01,397.000000,,2013-09-22 19:11:00,
2013-09-22 12:42:00,67.0,48.0,-100.00,SW,234,5.0,10.0,51,0.00,,,0.01,641.000000,,2013-09-22 19:42:00,
2013-09-22 12:52:00,67.0,48.0,-100.00,SW,234,5.0,10.0,51,0.00,,,0.01,641.000000,,2013-09-22 19:52:00,
2013-09-22 13:03:00,67.0,48.0,-100.00,SW,234,5.0,10.0,51,0.00,,,0.01,641.000000,,2013-09-22 20:03:00,
2013-09-22 13:12:00,67.0,48.0,-100.00,SW,234,5.0,10.0,51,0.00,,,0.01,641.000000,,2013-09-22 20:12:00,
2013-09-22 13:42:00,67.0,46.0,-100.00,West,263,6.0,14.0,47,0.00,,,0.01,582.000000,,2013-09-22 20:42:00,
2013-09-22 13:52:00,67.0,46.0,-100.00,West,263,6.0,14.0,47,0.00,,,0.01,582.000000,,2013-09-22 20:52:00,
2013-09-22 14:02:00,67.0,46.0,-100.00,West,263,6.0,14.0,47,0.00,,,0.01,582.000000,,2013-09-22 21:02:00,
2013-09-22 14:11:00,67.0,46.0,-100.00,West,263,6.0,14.0,47,0.00,,,0.01,582.000000,,2013-09-22 21:11:00,
2013-09-22 14:13:00,70.0,46.0,-100.00,West,273,5.0,12.0,43,0.00,,,0.01,619.000000,,2013-09-22 21:13:00,
2013-09-22 14:45:00,70.0,46.0,-100.00,West,273,5.0,12.0,43,0.00,,,0.01,619.000000,,2013-09-22 21:45:00,
2013-09-22 14:54:00,70.0,46.0,-100.00,West,273,5.0,12.0,43,0.00,,,0.01,619.000000,,2013-09-22 21:54:00,
2013-09-22 15:04:00,70.0,46.0,-100.00,West,273,5.0,12.0,43,0.00,,,0.01,619.000000,,2013-09-22 22:04:00,
2013-09-22 15:43:00,70.0,43.0,-100.00,West,277,6.0,12.0,38,0.00,,,0.01,614.000000,,2013-09-22 22:43:00,
2013-09-22 15:53:00,70.0,43.0,-100.00,West,277,6.0,12.0,38,0.00,,,0.01,614.000000,,2013-09-22 22:53:00,
2013-09-22 16:03:00,70.0,43.0,-100.00,West,277,6.0,12.0,38,0.00,,,0.01,614.000000,,2013-09-22 23:03:00,
2013-09-22 16:12:00,70.0,43.0,-100.00,West,277,6.0,12.0,38,0.00,,,0.01,614.000000,,2013-09-22 23:12:00,
2013-09-22 16:43:00,70.0,44.0,-100.00,West,270,7.0,11.0,39,0.00,,,0.01,491.000000,,2013-09-22 23:43:00,
2013-09-22 16:52:00,70.0,44.0,-100.00,West,270,7.0,11.0,39,0.00,,,0.01,491.000000,,2013-09-22 23:52:00,
2013-09-22 17:01:00,70.0,44.0,-100.00,West,270,7.0,11.0,39,0.00,,,0.01,491.000000,,2013-09-23 00:01:00,
2013-09-22 17:12:00,70.0,44.0,-100.00,West,270,7.0,11.0,39,0.00,,,0.01,491.000000,,2013-09-23 00:12:00,
2013-09-22 17:42:00,69.0,44.0,-100.00,WSW,253,6.0,11.0,40,0.00,,,0.01,323.000000,,2013-09-23 00:42:00,
2013-09-22 17:53:00,69.0,44.0,-100.00,WSW,253,6.0,11.0,40,0.00,,,0.01,323.000000,,2013-09-23 00:53:00,
2013-09-22 18:01:00,69.0,44.0,-100.00,WSW,253,6.0,11.0,40,0.00,,,0.01,323.000000,,2013-09-23 01:01:00,
2013-09-22 18:12:00,69.0,44.0,-100.00,WSW,253,6.0,11.0,40,0.00,,,0.01,323.000000,,2013-09-23 01:12:00,
2013-09-22 18:43:00,68.0,45.0,-100.00,West,280,3.0,11.0,44,0.00,,,0.01,140.000000,,2013-09-23 01:43:00,
2013-09-22 18:52:00,68.0,45.0,-100.00,West,280,3.0,11.0,44,0.00,,,0.01,140.000000,,2013-09-23 01:52:00,
2013-09-22 19:02:00,68.0,45.0,-100.00,West,280,3.0,11.0,44,0.00,,,0.01,140.000000,,2013-09-23 02:02:00,
2013-09-22 19:11:00,68.0,45.0,-100.00,West,280,3.0,11.0,44,0.00,,,0.01,140.000000,,2013-09-23 02:11:00,
2013-09-22 19:42:00,63.0,45.0,-100.00,SE,136,1.0,7.0,51,0.00,,,0.01,19.000000,,2013-09-23 02:42:00,
2013-09-22 19:52:00,63.0,45.0,-100.00,SE,136,1.0,7.0,51,0.00,,,0.01,19.000000,,2013-09-23 02:52:00,
2013-09-22 20:02:00,63.0,45.0,-100.00,SE,136,1.0,7.0,51,0.00,,,0.01,19.000000,,2013-09-23 03:02:00,
2013-09-22 20:12:00,63.0,45.0,-100.00,SE,136,1.0,7.0,51,0.00,,,0.01,19.000000,,2013-09-23 03:12:00,
2013-09-22 20:13:00,60.0,44.0,-100.00,ENE,59,4.0,6.0,55,0.00,,,0.01,0.000000,,2013-09-23 03:13:00,
2013-09-22 20:44:00,60.0,44.0,-100.00,ENE,59,4.0,6.0,55,0.00,,,0.01,0.000000,,2013-09-23 03:44:00,
2013-09-22 20:54:00,60.0,44.0,-100.00,ENE,59,4.0,6.0,55,0.00,,,0.01,0.000000,,2013-09-23 03:54:00,
2013-09-22 21:05:00,60.0,44.0,-100.00,ENE,59,4.0,6.0,55,0.00,,,0.01,0.000000,,2013-09-23 04:05:00,
2013-09-22 21:43:00,58.0,43.0,-100.00,ENE,57,5.0,7.0,58,0.00,,,0.00,0.000000,,2013-09-23 04:43:00,
2013-09-22 21:54:00,58.0,43.0,-100.00,ENE,57,5.0,7.0,58,0.00,,,0.00,0.000000,,2013-09-23 04:54:00,
2013-09-22 22:03:00,58.0,43.0,-100.00,ENE,57,5.0,7.0,58,0.00,,,0.00,0.000000,,2013-09-23 05:03:00,
2013-09-22 22:12:00,58.0,43.0,-100.00,ENE,57,5.0,7.0,58,0.00,,,0.00,0.000000,,2013-09-23 05:12:00,
2013-09-22 22:43:00,58.0,44.0,-100.00,ENE,71,5.0,6.0,60,0.00,,,0.00,0.000000,,2013-09-23 05:43:00,
2013-09-22 22:53:00,58.0,44.0,-100.00,ENE,71,5.0,6.0,60,0.00,,,0.00,0.000000,,2013-09-23 05:53:00,
2013-09-22 23:02:00,58.0,44.0,-100.00,ENE,71,5.0,6.0,60,0.00,,,0.00,0.000000,,2013-09-23 06:02:00,
2013-09-22 23:12:00,58.0,44.0,-100.00,ENE,71,5.0,6.0,60,0.00,,,0.00,0.000000,,2013-09-23 06:12:00,
2013-09-22 23:42:00,57.0,44.0,-100.00,East,84,4.0,7.0,61,0.00,,,0.00,0.000000,,2013-09-23 06:42:00,
2013-09-22 23:52:00,57.0,44.0,-100.00,East,84,4.0,7.0,61,0.00,,,0.00,0.000000,,2013-09-23 06:52:00,